| time (UTC) | temp F | wind direction | speed knots | gust knots | rain 1hr in | rain 24hr in | rain mn in | humidity % | barometer mb |
| 20260506051323 | 56 | 47 | 0.0 | 0.0 | 0.00 | 0.00 | 0.00 | 99 | 1012.3 |
| 20260506051123 | 56 | 47 | 0.0 | 0.0 | 0.00 | 0.00 | 0.00 | 99 | 1012.3 |
| 20260506050923 | 56 | 47 | 0.0 | 0.0 | 0.00 | 0.00 | 0.00 | 99 | 1012.3 |
| 20260506050723 | 56 | 47 | 0.0 | 0.0 | 0.00 | 0.00 | 0.00 | 99 | 1012.3 |
| 20260506050523 | 56 | 47 | 0.0 | 0.0 | 0.00 | 0.00 | 0.00 | 99 | 1012.2 |
| 20260506050253 | 56 | 47 | 0.0 | 0.0 | 0.00 | 0.00 | 0.00 | 99 | 1012.2 |
| 20260506045123 | 57 | 47 | 0.0 | 0.0 | 0.00 | 0.00 | 0.00 | 99 | 1012.2 |
| 20260506044923 | 57 | 47 | 0.0 | 0.0 | 0.00 | 0.00 | 0.00 | 99 | 1012.2 |
| 20260506044653 | 57 | 47 | 0.0 | 0.0 | 0.00 | 0.00 | 0.00 | 99 | 1012.2 |
| 20260506044423 | 57 | 47 | 0.0 | 0.0 | 0.00 | 0.00 | 0.00 | 99 | 1012.2 |
| 20260506044222 | 57 | 47 | 0.0 | 0.0 | 0.00 | 0.00 | 0.00 | 99 | 1012.1 |
| 20260506043953 | 57 | 47 | 0.0 | 0.0 | 0.00 | 0.00 | 0.00 | 99 | 1012.1 |
| 20260506043753 | 57 | 47 | 0.0 | 0.0 | 0.00 | 0.00 | 0.00 | 99 | 1012.1 |
| 20260506043552 | 57 | 47 | 0.0 | 0.0 | 0.00 | 0.00 | 0.00 | 99 | 1012.0 |
| 20260506043322 | 57 | 47 | 0.0 | 0.0 | 0.00 | 0.00 | 0.00 | 99 | 1012.0 |
| 20260506043052 | 58 | 47 | 0.0 | 0.0 | 0.00 | 0.00 | 0.00 | 99 | 1011.9 |
| 20260506042852 | 58 | 47 | 0.0 | 0.0 | 0.00 | 0.00 | 0.00 | 99 | 1011.9 |
| 20260506042652 | 58 | 47 | 0.0 | 0.0 | 0.00 | 0.00 | 0.00 | 99 | 1011.9 |
| 20260506042422 | 58 | 47 | 0.0 | 0.0 | 0.00 | 0.00 | 0.00 | 99 | 1011.9 |
| 20260506042152 | 58 | 47 | 0.0 | 0.0 | 0.00 | 0.00 | 0.00 | 99 | 1011.9 |
| 20260506041952 | 58 | 47 | 0.0 | 0.0 | 0.00 | 0.00 | 0.00 | 99 | 1011.8 |
| 20260506041722 | 58 | 47 | 0.0 | 0.0 | 0.00 | 0.00 | 0.00 | 99 | 1011.8 |
| 20260506041452 | 58 | 47 | 0.0 | 0.0 | 0.00 | 0.00 | 0.00 | 99 | 1011.7 |
| 20260506041253 | 59 | 47 | 0.0 | 0.0 | 0.00 | 0.00 | 0.00 | 99 | 1011.7 |
| 20260506041052 | 59 | 47 | 0.0 | 0.0 | 0.00 | 0.00 | 0.00 | 99 | 1011.8 |
| 20260506040852 | 59 | 47 | 0.0 | 0.0 | 0.00 | 0.00 | 0.00 | 99 | 1011.7 |
| 20260506040652 | 59 | 47 | 0.0 | 0.0 | 0.00 | 0.00 | 0.00 | 99 | 1011.7 |
| 20260506040452 | 59 | 47 | 0.0 | 0.0 | 0.00 | 0.00 | 0.00 | 99 | 1011.6 |
| 20260506040252 | 59 | 47 | 0.0 | 0.0 | 0.00 | 0.00 | 0.00 | 99 | 1011.6 |
| 20260506040052 | 59 | 47 | 0.0 | 0.0 | 0.00 | 0.00 | 0.00 | 99 | 1011.6 |
| 20260506035852 | 60 | 47 | 0.0 | 0.0 | 0.00 | 0.00 | 0.00 | 99 | 1011.6 |
| 20260506035652 | 60 | 47 | 0.0 | 0.0 | 0.00 | 0.00 | 0.00 | 99 | 1011.6 |
| 20260506035452 | 60 | 47 | 0.0 | 0.0 | 0.00 | 0.00 | 0.00 | 99 | 1011.6 |
| 20260506035252 | 60 | 47 | 0.0 | 0.0 | 0.00 | 0.00 | 0.00 | 99 | 1011.5 |
| 20260506035052 | 60 | 47 | 0.0 | 0.0 | 0.00 | 0.00 | 0.00 | 99 | 1011.5 |
| 20260506034852 | 60 | 47 | 0.0 | 0.0 | 0.00 | 0.00 | 0.00 | 99 | 1011.5 |
| 20260506034622 | 60 | 47 | 0.0 | 0.0 | 0.00 | 0.00 | 0.00 | 99 | 1011.5 |
| 20260506034352 | 61 | 47 | 0.0 | 0.0 | 0.00 | 0.00 | 0.00 | 99 | 1011.4 |
| 20260506034152 | 61 | 47 | 0.0 | 0.0 | 0.00 | 0.00 | 0.00 | 99 | 1011.4 |
| 20260506033952 | 61 | 47 | 0.0 | 0.0 | 0.00 | 0.00 | 0.00 | 99 | 1011.4 |
| 20260506033752 | 61 | 47 | 0.0 | 0.0 | 0.00 | 0.00 | 0.00 | 99 | 1011.4 |
| 20260506033522 | 61 | 47 | 0.0 | 0.0 | 0.00 | 0.00 | 0.00 | 99 | 1011.4 |
| 20260506033322 | 61 | 47 | 0.0 | 0.0 | 0.00 | 0.00 | 0.00 | 99 | 1011.3 |
| 20260506033122 | 61 | 47 | 0.0 | 0.0 | 0.00 | 0.00 | 0.00 | 99 | 1011.3 |
| 20260506032922 | 61 | 47 | 0.0 | 0.0 | 0.00 | 0.00 | 0.00 | 99 | 1011.2 |
| 20260506032722 | 61 | 47 | 0.0 | 0.0 | 0.00 | 0.00 | 0.00 | 99 | 1011.3 |
| 20260506032522 | 61 | 47 | 0.0 | 0.0 | 0.00 | 0.00 | 0.00 | 99 | 1011.2 |
| 20260506032322 | 62 | 47 | 0.0 | 0.0 | 0.00 | 0.00 | 0.00 | 99 | 1011.2 |
| 20260506032122 | 62 | 47 | 0.0 | 0.0 | 0.00 | 0.00 | 0.00 | 99 | 1011.2 |
| 20260506031852 | 62 | 47 | 0.0 | 0.0 | 0.00 | 0.00 | 0.00 | 99 | 1011.2 |
| 20260506031652 | 62 | 47 | 0.0 | 0.0 | 0.00 | 0.00 | 0.00 | 99 | 1011.2 |
| 20260506031452 | 62 | 47 | 0.0 | 0.0 | 0.00 | 0.00 | 0.00 | 99 | 1011.2 |
| 20260506031252 | 62 | 47 | 0.0 | 0.0 | 0.00 | 0.00 | 0.00 | 99 | 1011.1 |
| 20260506031052 | 62 | 47 | 0.0 | 0.0 | 0.00 | 0.00 | 0.00 | 99 | 1011.2 |
| 20260506030822 | 62 | 47 | 0.0 | 0.0 | 0.00 | 0.00 | 0.00 | 99 | 1011.1 |
| 20260506030552 | 62 | 47 | 0.0 | 0.0 | 0.00 | 0.00 | 0.00 | 99 | 1011.1 |
| 20260506030352 | 62 | 47 | 0.0 | 0.0 | 0.00 | 0.00 | 0.00 | 99 | 1011.0 |
| 20260506030122 | 62 | 47 | 0.0 | 0.0 | 0.00 | 0.00 | 0.00 | 99 | 1011.0 |
| 20260506025922 | 62 | 47 | 0.0 | 0.0 | 0.00 | 0.00 | 0.00 | 99 | 1011.0 |
| 20260506025722 | 62 | 47 | 0.0 | 0.0 | 0.00 | 0.00 | 0.00 | 99 | 1011.0 |
| 20260506025452 | 63 | 47 | 0.0 | 0.0 | 0.00 | 0.00 | 0.00 | 99 | 1011.0 |
| 20260506025222 | 63 | 47 | 0.0 | 0.0 | 0.00 | 0.00 | 0.00 | 99 | 1011.0 |
| 20260506025022 | 63 | 47 | 0.0 | 0.0 | 0.00 | 0.00 | 0.00 | 99 | 1011.0 |
| 20260506024752 | 63 | 47 | 0.0 | 0.0 | 0.00 | 0.00 | 0.00 | 99 | 1011.1 |
| 20260506024522 | 63 | 47 | 0.0 | 0.0 | 0.00 | 0.00 | 0.00 | 99 | 1011.1 |
| 20260506024252 | 63 | 47 | 0.9 | 0.0 | 0.00 | 0.00 | 0.00 | 99 | 1011.1 |
| 20260506024052 | 63 | 47 | 0.0 | 2.6 | 0.00 | 0.00 | 0.00 | 99 | 1011.0 |
| 20260506023852 | 63 | 65 | 0.0 | 0.0 | 0.00 | 0.00 | 0.00 | 99 | 1011.0 |
| 20260506023652 | 64 | 66 | 0.9 | 2.6 | 0.00 | 0.00 | 0.00 | 99 | 1011.0 |
| 20260506023452 | 64 | 59 | 0.9 | 0.9 | 0.00 | 0.00 | 0.00 | 99 | 1011.0 |
| 20260506023222 | 64 | 59 | 0.0 | 0.9 | 0.00 | 0.00 | 0.00 | 99 | 1011.0 |
| 20260506022952 | 64 | 59 | 0.9 | 2.6 | 0.00 | 0.00 | 0.00 | 99 | 1011.1 |
| 20260506022752 | 64 | 59 | 0.0 | 0.0 | 0.00 | 0.00 | 0.00 | 99 | 1011.0 |
| 20260506022552 | 64 | 59 | 0.0 | 0.0 | 0.00 | 0.00 | 0.00 | 99 | 1011.1 |
| 20260506022352 | 64 | 59 | 0.0 | 1.7 | 0.00 | 0.00 | 0.00 | 99 | 1011.1 |
| 20260506022152 | 64 | 59 | 0.0 | 0.0 | 0.00 | 0.00 | 0.00 | 99 | 1011.1 |
| 20260506021952 | 65 | 59 | 0.9 | 0.0 | 0.00 | 0.00 | 0.00 | 99 | 1011.1 |
| 20260506021722 | 65 | 61 | 1.7 | 2.6 | 0.00 | 0.00 | 0.00 | 99 | 1011.2 |
| 20260506021522 | 65 | 59 | 0.9 | 1.7 | 0.00 | 0.00 | 0.00 | 99 | 1011.2 |
| 20260506021322 | 65 | 80 | 0.0 | 0.0 | 0.00 | 0.00 | 0.00 | 99 | 1011.2 |
| 20260506021122 | 65 | 80 | 0.0 | 0.0 | 0.00 | 0.00 | 0.00 | 99 | 1011.2 |
| 20260506020922 | 65 | 80 | 0.9 | 2.6 | 0.00 | 0.00 | 0.00 | 99 | 1011.2 |
| 20260506020722 | 65 | 80 | 0.9 | 1.7 | 0.00 | 0.00 | 0.00 | 99 | 1011.2 |
| 20260506020452 | 65 | 80 | 0.0 | 0.0 | 0.00 | 0.00 | 0.00 | 99 | 1011.2 |
| 20260506020252 | 65 | 80 | 0.9 | 1.7 | 0.00 | 0.00 | 0.00 | 99 | 1011.1 |
| 20260506020052 | 65 | 74 | 0.9 | 2.6 | 0.00 | 0.00 | 0.00 | 99 | 1011.1 |
| 20260506015822 | 65 | 66 | 0.9 | 1.7 | 0.00 | 0.00 | 0.00 | 99 | 1011.1 |
| 20260506015622 | 65 | 65 | 1.7 | 2.6 | 0.00 | 0.00 | 0.00 | 99 | 1011.1 |
| 20260506015422 | 65 | 73 | 2.6 | 2.6 | 0.00 | 0.00 | 0.00 | 99 | 1011.1 |
| 20260506015222 | 66 | 67 | 0.9 | 2.6 | 0.00 | 0.00 | 0.00 | 99 | 1011.1 |
| 20260506015022 | 66 | 71 | 0.0 | 1.7 | 0.00 | 0.00 | 0.00 | 99 | 1011.1 |
| 20260506014752 | 67 | 71 | 0.0 | 1.7 | 0.00 | 0.00 | 0.00 | 99 | 1011.2 |
| 20260506014522 | 67 | 71 | 0.0 | 1.7 | 0.00 | 0.00 | 0.00 | 99 | 1011.2 |
| 20260506014252 | 68 | 71 | 0.9 | 2.6 | 0.00 | 0.00 | 0.00 | 99 | 1011.2 |
| 20260506014052 | 68 | 71 | 0.0 | 0.9 | 0.00 | 0.00 | 0.00 | 99 | 1011.2 |
| 20260506013852 | 68 | 71 | 0.0 | 0.0 | 0.00 | 0.00 | 0.00 | 99 | 1011.2 |
| 20260506013652 | 69 | 71 | 0.0 | 2.6 | 0.00 | 0.00 | 0.00 | 99 | 1011.1 |
| 20260506013422 | 69 | 71 | 0.9 | 0.9 | 0.00 | 0.00 | 0.00 | 99 | 1011.1 |
| 20260506013222 | 69 | 71 | 0.0 | 0.0 | 0.00 | 0.00 | 0.00 | 99 | 1011.1 |
| 20260506013022 | 69 | 71 | 0.0 | 0.0 | 0.00 | 0.00 | 0.00 | 99 | 1011.2 |
| 20260506012822 | 70 | 71 | 0.0 | 0.0 | 0.00 | 0.00 | 0.00 | 99 | 1011.2 |
| 20260506012622 | 69 | 71 | 0.0 | 0.0 | 0.00 | 0.00 | 0.00 | 99 | 1011.1 |
| 20260506012422 | 69 | 71 | 0.0 | 0.0 | 0.00 | 0.00 | 0.00 | 99 | 1011.1 |
| 20260506012151 | 69 | 71 | 0.0 | 0.0 | 0.00 | 0.00 | 0.00 | 99 | 1011.1 |
| 20260506011951 | 68 | 71 | 0.0 | 0.0 | 0.00 | 0.00 | 0.00 | 99 | 1011.1 |
| 20260506011752 | 68 | 71 | 0.0 | 0.0 | 0.00 | 0.00 | 0.00 | 99 | 1011.1 |
| 20260506011551 | 68 | 71 | 0.0 | 0.0 | 0.00 | 0.00 | 0.00 | 99 | 1011.1 |
| 20260506011351 | 68 | 71 | 0.9 | 1.7 | 0.00 | 0.00 | 0.00 | 99 | 1011.1 |
| 20260506011121 | 68 | 70 | 0.0 | 0.0 | 0.00 | 0.00 | 0.00 | 99 | 1011.1 |
| 20260506010851 | 67 | 70 | 0.0 | 0.9 | 0.00 | 0.00 | 0.00 | 99 | 1011.1 |
| 20260506010651 | 67 | 63 | 0.9 | 0.9 | 0.00 | 0.00 | 0.00 | 99 | 1011.1 |
| 20260506010451 | 67 | 59 | 0.9 | 2.6 | 0.00 | 0.00 | 0.00 | 99 | 1011.1 |
| 20260506010251 | 67 | 57 | 1.7 | 2.6 | 0.00 | 0.00 | 0.00 | 99 | 1011.2 |
| 20260506010051 | 67 | 51 | 0.9 | 1.7 | 0.00 | 0.00 | 0.00 | 99 | 1011.2 |
| 20260506005821 | 68 | 55 | 0.9 | 2.6 | 0.00 | 0.00 | 0.00 | 99 | 1011.2 |
| 20260506005621 | 68 | 60 | 0.9 | 2.6 | 0.00 | 0.00 | 0.00 | 99 | 1011.2 |
| 20260506005421 | 68 | 78 | 0.0 | 0.0 | 0.00 | 0.00 | 0.00 | 99 | 1011.2 |
| 20260506005221 | 67 | 78 | 0.0 | 0.0 | 0.00 | 0.00 | 0.00 | 99 | 1011.2 |
| 20260506005021 | 67 | 71 | 0.9 | 0.9 | 0.00 | 0.00 | 0.00 | 99 | 1011.2 |
| 20260506004821 | 67 | 127 | 0.0 | 0.0 | 0.00 | 0.00 | 0.00 | 99 | 1011.3 |
| 20260506004621 | 66 | 68 | 0.9 | 2.6 | 0.00 | 0.00 | 0.00 | 99 | 1011.3 |
| 20260506004351 | 66 | 72 | 0.9 | 0.9 | 0.00 | 0.00 | 0.00 | 99 | 1011.3 |
| 20260506004151 | 66 | 76 | 1.7 | 2.6 | 0.00 | 0.00 | 0.00 | 99 | 1011.3 |
| 20260506003921 | 66 | 57 | 2.6 | 2.6 | 0.00 | 0.00 | 0.00 | 99 | 1011.3 |
| 20260506003721 | 67 | 82 | 4.3 | 5.2 | 0.00 | 0.00 | 0.00 | 99 | 1011.4 |
| 20260506003521 | 67 | 63 | 1.7 | 5.2 | 0.00 | 0.00 | 0.00 | 99 | 1011.4 |
| 20260506003251 | 68 | 84 | 2.6 | 5.2 | 0.00 | 0.00 | 0.00 | 99 | 1011.4 |
| 20260506003021 | 69 | 77 | 2.6 | 2.6 | 0.00 | 0.00 | 0.00 | 99 | 1011.4 |
| 20260506002821 | 70 | 68 | 1.7 | 5.2 | 0.00 | 0.00 | 0.00 | 99 | 1011.4 |
| 20260506002552 | 69 | 97 | 0.0 | 0.9 | 0.00 | 0.00 | 0.00 | 99 | 1011.4 |
| 20260506002351 | 69 | 98 | 0.0 | 0.9 | 0.00 | 0.00 | 0.00 | 99 | 1011.4 |
| 20260506002151 | 68 | 63 | 0.0 | 0.0 | 0.00 | 0.00 | 0.00 | 99 | 1011.4 |
| 20260506001951 | 67 | 125 | 0.0 | 2.6 | 0.00 | 0.00 | 0.00 | 99 | 1011.4 |
| 20260506001751 | 67 | 123 | 0.0 | 1.7 | 0.00 | 0.00 | 0.00 | 99 | 1011.4 |
| 20260506001551 | 67 | 115 | 0.9 | 2.6 | 0.00 | 0.00 | 0.00 | 99 | 1011.4 |
| 20260506001321 | 66 | 58 | 0.0 | 0.0 | 0.00 | 0.00 | 0.00 | 99 | 1011.5 |
| 20260506001121 | 66 | 58 | 0.9 | 2.6 | 0.00 | 0.00 | 0.00 | 99 | 1011.5 |
| 20260506000921 | 66 | 53 | 1.7 | 2.6 | 0.00 | 0.00 | 0.00 | 99 | 1011.5 |
| 20260506000721 | 66 | 53 | 1.7 | 4.3 | 0.00 | 0.00 | 0.00 | 99 | 1011.5 |
| 20260506000521 | 66 | 64 | 1.7 | 4.3 | 0.00 | 0.00 | 0.00 | 99 | 1011.5 |
| 20260506000251 | 65 | 55 | 0.9 | 1.7 | 0.00 | 0.00 | 0.00 | 99 | 1011.5 |
| 20260506000051 | 65 | 57 | 1.7 | 4.3 | 0.00 | 0.00 | 0.00 | 99 | 1011.5 |
| 20260505235851 | 65 | 48 | 1.7 | 2.6 | 0.00 | 0.00 | 0.00 | 99 | 1011.5 |
| 20260505235651 | 65 | 74 | 2.6 | 5.2 | 0.00 | 0.00 | 0.00 | 99 | 1011.6 |
| 20260505235451 | 65 | 59 | 0.9 | 2.6 | 0.00 | 0.00 | 0.00 | 99 | 1011.6 |
| 20260505235221 | 65 | 60 | 2.6 | 4.3 | 0.00 | 0.00 | 0.00 | 99 | 1011.6 |
| 20260505235021 | 66 | 68 | 2.6 | 6.1 | 0.00 | 0.00 | 0.00 | 99 | 1011.6 |
| 20260505234751 | 66 | 66 | 2.6 | 2.6 | 0.00 | 0.00 | 0.00 | 99 | 1011.7 |
| 20260505234551 | 66 | 58 | 1.7 | 5.2 | 0.00 | 0.00 | 0.00 | 99 | 1011.7 |
| 20260505234321 | 66 | 61 | 0.9 | 1.7 | 0.00 | 0.00 | 0.00 | 99 | 1011.7 |
| 20260505234121 | 66 | 58 | 1.7 | 5.2 | 0.00 | 0.00 | 0.00 | 99 | 1011.7 |
| 20260505233921 | 66 | 71 | 0.9 | 1.7 | 0.00 | 0.00 | 0.00 | 99 | 1011.8 |
| 20260505233651 | 66 | 74 | 0.0 | 2.6 | 0.00 | 0.00 | 0.00 | 99 | 1011.8 |
| 20260505233451 | 66 | 59 | 1.7 | 1.7 | 0.00 | 0.00 | 0.00 | 99 | 1011.8 |
| 20260505233221 | 66 | 82 | 1.7 | 6.1 | 0.00 | 0.00 | 0.00 | 99 | 1011.8 |
| 20260505233021 | 66 | 61 | 1.7 | 1.7 | 0.00 | 0.00 | 0.00 | 99 | 1011.9 |
| 20260505232821 | 66 | 84 | 0.9 | 1.7 | 0.00 | 0.00 | 0.00 | 99 | 1011.8 |
| 20260505232621 | 66 | 62 | 1.7 | 7.0 | 0.00 | 0.00 | 0.00 | 99 | 1011.9 |
| 20260505232421 | 66 | 69 | 2.6 | 2.6 | 0.00 | 0.00 | 0.00 | 99 | 1011.9 |
| 20260505232151 | 66 | 63 | 0.9 | 2.6 | 0.00 | 0.00 | 0.00 | 99 | 1011.9 |
| 20260505231951 | 66 | 60 | 2.6 | 6.1 | 0.00 | 0.00 | 0.00 | 99 | 1011.9 |
| 20260505231721 | 66 | 64 | 0.9 | 1.7 | 0.00 | 0.00 | 0.00 | 99 | 1011.9 |
| 20260505231521 | 66 | 63 | 0.9 | 0.0 | 0.00 | 0.00 | 0.00 | 99 | 1011.9 |
| 20260505231321 | 66 | 29 | 0.9 | 1.7 | 0.00 | 0.00 | 0.00 | 99 | 1012.0 |
| 20260505231121 | 66 | 47 | 1.7 | 6.1 | 0.00 | 0.00 | 0.00 | 99 | 1012.0 |
| 20260505230851 | 66 | 66 | 1.7 | 5.2 | 0.00 | 0.00 | 0.00 | 99 | 1012.0 |
| 20260505230621 | 65 | 63 | 0.9 | 2.6 | 0.00 | 0.00 | 0.00 | 99 | 1012.0 |
| 20260505230351 | 65 | 76 | 1.7 | 5.2 | 0.00 | 0.00 | 0.00 | 99 | 1012.0 |
| 20260505230151 | 65 | 47 | 1.7 | 2.6 | 0.00 | 0.00 | 0.00 | 99 | 1012.1 |
| 20260505225951 | 65 | 29 | 1.7 | 5.2 | 0.00 | 0.00 | 0.00 | 99 | 1012.1 |
| 20260505225751 | 66 | 58 | 1.7 | 5.2 | 0.00 | 0.00 | 0.00 | 99 | 1012.1 |
| 20260505225551 | 66 | 70 | 1.7 | 6.1 | 0.00 | 0.00 | 0.00 | 99 | 1012.1 |
| 20260505225351 | 66 | 64 | 2.6 | 2.6 | 0.00 | 0.00 | 0.00 | 99 | 1012.2 |
| 20260505225121 | 67 | 68 | 2.6 | 6.1 | 0.00 | 0.00 | 0.00 | 99 | 1012.2 |
| 20260505224921 | 67 | 33 | 1.7 | 2.6 | 0.00 | 0.00 | 0.00 | 99 | 1012.2 |
| 20260505224651 | 67 | 72 | 0.9 | 2.6 | 0.00 | 0.00 | 0.00 | 99 | 1012.2 |
| 20260505224421 | 67 | 66 | 0.0 | 1.7 | 0.00 | 0.00 | 0.00 | 99 | 1012.2 |
| 20260505224151 | 66 | 58 | 1.7 | 1.7 | 0.00 | 0.00 | 0.00 | 99 | 1012.3 |
| 20260505223951 | 67 | 103 | 1.7 | 4.3 | 0.00 | 0.00 | 0.00 | 99 | 1012.3 |
| 20260505223721 | 67 | 52 | 0.9 | 6.1 | 0.00 | 0.00 | 0.00 | 99 | 1012.3 |
| 20260505223521 | 67 | 56 | 1.7 | 5.2 | 0.00 | 0.00 | 0.00 | 99 | 1012.3 |
| 20260505223251 | 67 | 142 | 1.7 | 2.6 | 0.00 | 0.00 | 0.00 | 99 | 1012.3 |
| 20260505223051 | 67 | 142 | 2.6 | 5.2 | 0.00 | 0.00 | 0.00 | 99 | 1012.3 |
| 20260505222851 | 67 | 50 | 0.0 | 2.6 | 0.00 | 0.00 | 0.00 | 99 | 1012.3 |
| 20260505222651 | 67 | 46 | 1.7 | 2.6 | 0.00 | 0.00 | 0.00 | 99 | 1012.4 |
| 20260505222451 | 67 | 69 | 0.9 | 0.9 | 0.00 | 0.00 | 0.00 | 99 | 1012.4 |
| 20260505222221 | 67 | 69 | 0.9 | 1.7 | 0.00 | 0.00 | 0.00 | 99 | 1012.4 |
| 20260505221951 | 66 | 66 | 0.9 | 1.7 | 0.00 | 0.00 | 0.00 | 99 | 1012.4 |
| 20260505221721 | 66 | 98 | 2.6 | 5.2 | 0.00 | 0.00 | 0.00 | 99 | 1012.4 |
| 20260505221521 | 66 | 79 | 0.9 | 0.9 | 0.00 | 0.00 | 0.00 | 99 | 1012.4 |
| 20260505221251 | 66 | 106 | 1.7 | 6.1 | 0.00 | 0.00 | 0.00 | 99 | 1012.5 |
| 20260505221021 | 66 | 61 | 0.9 | 1.7 | 0.00 | 0.00 | 0.00 | 99 | 1012.5 |
| 20260505220821 | 66 | 52 | 2.6 | 2.6 | 0.00 | 0.00 | 0.00 | 99 | 1012.5 |
| 20260505220621 | 66 | 93 | 1.7 | 4.3 | 0.00 | 0.00 | 0.00 | 99 | 1012.5 |
| 20260505220421 | 66 | 64 | 2.6 | 6.1 | 0.00 | 0.00 | 0.00 | 99 | 1012.5 |
| 20260505220221 | 66 | 28 | 0.9 | 2.6 | 0.00 | 0.00 | 0.00 | 99 | 1012.5 |
| 20260505220021 | 66 | 44 | 0.9 | 2.6 | 0.00 | 0.00 | 0.00 | 99 | 1012.5 |
| 20260505215821 | 65 | 78 | 0.9 | 2.6 | 0.00 | 0.00 | 0.00 | 99 | 1012.5 |
| 20260505215551 | 65 | 67 | 0.9 | 4.3 | 0.00 | 0.00 | 0.00 | 99 | 1012.6 |
| 20260505215321 | 65 | 63 | 1.7 | 1.7 | 0.00 | 0.00 | 0.00 | 99 | 1012.6 |
| 20260505215121 | 64 | 44 | 0.9 | 2.6 | 0.00 | 0.00 | 0.00 | 99 | 1012.6 |
| 20260505214921 | 64 | 64 | 0.9 | 7.0 | 0.00 | 0.00 | 0.00 | 99 | 1012.6 |
| 20260505214721 | 64 | 68 | 2.6 | 5.2 | 0.00 | 0.00 | 0.00 | 99 | 1012.6 |
| 20260505214521 | 64 | 41 | 4.3 | 6.1 | 0.00 | 0.00 | 0.00 | 99 | 1012.6 |
| 20260505214251 | 64 | 66 | 5.2 | 8.7 | 0.00 | 0.00 | 0.00 | 99 | 1012.6 |
| 20260505214051 | 64 | 73 | 5.2 | 10.4 | 0.00 | 0.00 | 0.00 | 99 | 1012.7 |
| 20260505213821 | 64 | 64 | 5.2 | 7.0 | 0.00 | 0.00 | 0.00 | 99 | 1012.7 |
| 20260505213621 | 64 | 44 | 2.6 | 2.6 | 0.00 | 0.00 | 0.00 | 99 | 1012.7 |
| 20260505213351 | 64 | 54 | 2.6 | 6.1 | 0.00 | 0.00 | 0.00 | 99 | 1012.7 |
| 20260505213121 | 64 | 30 | 1.7 | 6.1 | 0.00 | 0.00 | 0.00 | 99 | 1012.7 |
| 20260505212921 | 64 | 69 | 4.3 | 8.7 | 0.00 | 0.00 | 0.00 | 99 | 1012.7 |
| 20260505212721 | 64 | 34 | 1.7 | 2.6 | 0.00 | 0.00 | 0.00 | 99 | 1012.8 |
| 20260505212521 | 64 | 36 | 4.3 | 8.7 | 0.00 | 0.00 | 0.00 | 99 | 1012.8 |
| 20260505212321 | 65 | 48 | 4.3 | 7.0 | 0.00 | 0.00 | 0.00 | 99 | 1012.7 |
| 20260505212121 | 65 | 50 | 1.7 | 7.0 | 0.00 | 0.00 | 0.00 | 99 | 1012.8 |
| 20260505211921 | 65 | 73 | 2.6 | 5.2 | 0.00 | 0.00 | 0.00 | 99 | 1012.8 |
| 20260505211651 | 65 | 26 | 2.6 | 2.6 | 0.00 | 0.00 | 0.00 | 99 | 1012.8 |
| 20260505211421 | 65 | 40 | 1.7 | 5.2 | 0.00 | 0.00 | 0.00 | 99 | 1012.8 |
| 20260505211221 | 65 | 55 | 2.6 | 6.1 | 0.00 | 0.00 | 0.00 | 99 | 1012.8 |
| 20260505211021 | 65 | 51 | 0.9 | 6.1 | 0.00 | 0.00 | 0.00 | 99 | 1012.8 |
| 20260505210821 | 65 | 43 | 2.6 | 2.6 | 0.00 | 0.00 | 0.00 | 99 | 1012.9 |
| 20260505210621 | 65 | 74 | 2.6 | 7.0 | 0.00 | 0.00 | 0.00 | 99 | 1012.8 |
| 20260505210423 | 64 | 56 | 0.9 | 4.3 | 0.00 | 0.00 | 0.00 | 99 | 1012.9 |
| 20260505210221 | 64 | 81 | 2.6 | 6.1 | 0.00 | 0.00 | 0.00 | 99 | 1012.9 |
| 20260505205951 | 64 | 59 | 2.6 | 10.4 | 0.00 | 0.00 | 0.00 | 99 | 1012.9 |
| 20260505205751 | 64 | 70 | 4.3 | 4.3 | 0.00 | 0.00 | 0.00 | 99 | 1012.9 |
| 20260505205551 | 64 | 67 | 4.3 | 7.0 | 0.00 | 0.00 | 0.00 | 99 | 1012.9 |
| 20260505205321 | 64 | 71 | 4.3 | 10.4 | 0.00 | 0.00 | 0.00 | 99 | 1012.9 |
| 20260505205121 | 64 | 57 | 2.6 | 8.7 | 0.00 | 0.00 | 0.00 | 99 | 1012.9 |
| 20260505204851 | 64 | 71 | 4.3 | 10.4 | 0.00 | 0.00 | 0.00 | 99 | 1013.0 |
| 20260505204651 | 64 | 53 | 2.6 | 8.7 | 0.00 | 0.00 | 0.00 | 99 | 1013.0 |
| 20260505204421 | 64 | 33 | 1.7 | 2.6 | 0.00 | 0.00 | 0.00 | 99 | 1013.0 |
| 20260505204221 | 64 | 56 | 4.3 | 4.3 | 0.00 | 0.00 | 0.00 | 99 | 1013.0 |
| 20260505204021 | 64 | 92 | 5.2 | 10.4 | 0.00 | 0.00 | 0.00 | 99 | 1013.0 |
| 20260505203821 | 64 | 60 | 2.6 | 6.1 | 0.00 | 0.00 | 0.00 | 99 | 1013.0 |
| 20260505203551 | 65 | 64 | 4.3 | 8.7 | 0.00 | 0.00 | 0.00 | 99 | 1013.0 |
| 20260505203351 | 65 | 58 | 1.7 | 5.2 | 0.00 | 0.00 | 0.00 | 99 | 1012.9 |
| 20260505203151 | 64 | 50 | 1.7 | 2.6 | 0.00 | 0.00 | 0.00 | 99 | 1012.9 |
| 20260505202951 | 64 | 62 | 4.3 | 6.1 | 0.00 | 0.00 | 0.00 | 99 | 1013.0 |
| 20260505202751 | 64 | 61 | 4.3 | 2.6 | 0.00 | 0.00 | 0.00 | 99 | 1012.9 |
| 20260505202551 | 65 | 75 | 0.9 | 7.0 | 0.00 | 0.00 | 0.00 | 99 | 1013.0 |
| 20260505202351 | 64 | 57 | 0.9 | 4.3 | 0.00 | 0.00 | 0.00 | 99 | 1013.0 |
| 20260505202121 | 64 | 60 | 1.7 | 2.6 | 0.00 | 0.00 | 0.00 | 99 | 1013.0 |
| 20260505201851 | 64 | 129 | 0.0 | 2.6 | 0.00 | 0.00 | 0.00 | 99 | 1013.1 |
| 20260505201651 | 63 | 63 | 1.7 | 4.3 | 0.00 | 0.00 | 0.00 | 99 | 1013.0 |
| 20260505201451 | 63 | 16 | 0.9 | 2.6 | 0.00 | 0.00 | 0.00 | 99 | 1013.0 |
| 20260505201251 | 64 | 61 | 2.6 | 8.7 | 0.00 | 0.00 | 0.00 | 99 | 1013.0 |
| 20260505201051 | 64 | 25 | 4.3 | 6.1 | 0.00 | 0.00 | 0.00 | 99 | 1013.1 |
| 20260505200821 | 64 | 58 | 1.7 | 4.3 | 0.00 | 0.00 | 0.00 | 99 | 1013.0 |
| 20260505200621 | 64 | 96 | 1.7 | 2.6 | 0.00 | 0.00 | 0.00 | 99 | 1013.0 |
| 20260505200421 | 64 | 63 | 2.6 | 4.3 | 0.00 | 0.00 | 0.00 | 99 | 1013.0 |
| 20260505200221 | 64 | 54 | 0.9 | 5.2 | 0.00 | 0.00 | 0.00 | 99 | 1013.0 |
| 20260505195951 | 64 | 48 | 1.7 | 2.6 | 0.00 | 0.00 | 0.00 | 99 | 1013.0 |
| 20260505195751 | 64 | 50 | 1.7 | 5.2 | 0.00 | 0.00 | 0.00 | 99 | 1013.0 |
| 20260505195551 | 65 | 55 | 2.6 | 6.1 | 0.00 | 0.00 | 0.00 | 99 | 1013.0 |
| 20260505195351 | 64 | 140 | 0.9 | 2.6 | 0.00 | 0.00 | 0.00 | 99 | 1013.0 |
| 20260505195121 | 64 | 59 | 2.6 | 6.1 | 0.00 | 0.00 | 0.00 | 99 | 1013.0 |
| 20260505194851 | 64 | 99 | 0.9 | 6.1 | 0.00 | 0.00 | 0.00 | 99 | 1013.0 |
| 20260505194621 | 64 | 81 | 0.9 | 4.3 | 0.00 | 0.00 | 0.00 | 99 | 1013.0 |
| 20260505194421 | 63 | 153 | 2.6 | 5.2 | 0.00 | 0.00 | 0.00 | 99 | 1013.0 |
| 20260505194151 | 64 | 69 | 5.2 | 8.7 | 0.00 | 0.00 | 0.00 | 99 | 1013.0 |
| 20260505193951 | 64 | 65 | 2.6 | 4.3 | 0.00 | 0.00 | 0.00 | 99 | 1013.0 |
| 20260505193721 | 64 | 76 | 0.0 | 0.9 | 0.00 | 0.00 | 0.00 | 99 | 1013.1 |
| 20260505193521 | 63 | 155 | 0.9 | 1.7 | 0.00 | 0.00 | 0.00 | 99 | 1013.1 |
| 20260505193251 | 63 | 62 | 4.3 | 10.4 | 0.00 | 0.00 | 0.00 | 99 | 1013.0 |
| 20260505193051 | 63 | 61 | 1.7 | 10.4 | 0.00 | 0.00 | 0.00 | 99 | 1013.1 |
| 20260505192821 | 63 | 65 | 4.3 | 6.1 | 0.00 | 0.00 | 0.00 | 99 | 1013.1 |
| 20260505192621 | 64 | 72 | 2.6 | 8.7 | 0.00 | 0.00 | 0.00 | 99 | 1013.1 |
| 20260505192421 | 64 | 172 | 0.9 | 4.3 | 0.00 | 0.00 | 0.00 | 99 | 1013.1 |
| 20260505192221 | 64 | 128 | 0.9 | 5.2 | 0.00 | 0.00 | 0.00 | 99 | 1013.1 |
| 20260505191951 | 64 | 131 | 0.9 | 5.2 | 0.00 | 0.00 | 0.00 | 99 | 1013.2 |
| 20260505191721 | 64 | 46 | 0.9 | 2.6 | 0.00 | 0.00 | 0.00 | 99 | 1013.1 |
| 20260505191451 | 64 | 87 | 0.9 | 4.3 | 0.00 | 0.00 | 0.00 | 99 | 1013.1 |
| 20260505191221 | 63 | 71 | 1.7 | 2.6 | 0.00 | 0.00 | 0.00 | 99 | 1013.1 |
| 20260505191021 | 63 | 78 | 0.9 | 0.9 | 0.00 | 0.00 | 0.00 | 99 | 1013.1 |
| 20260505190751 | 63 | 99 | 4.3 | 5.2 | 0.00 | 0.00 | 0.00 | 99 | 1013.0 |
| 20260505190551 | 63 | 66 | 1.7 | 2.6 | 0.00 | 0.00 | 0.00 | 99 | 1013.0 |
| 20260505190351 | 63 | 63 | 1.7 | 5.2 | 0.00 | 0.00 | 0.00 | 99 | 1013.0 |
| 20260505190121 | 63 | 66 | 1.7 | 2.6 | 0.00 | 0.00 | 0.00 | 99 | 1013.0 |
| 20260505185851 | 62 | 56 | 1.7 | 4.3 | 0.00 | 0.00 | 0.00 | 99 | 1013.0 |
| 20260505185621 | 62 | 91 | 4.3 | 7.8 | 0.00 | 0.00 | 0.00 | 99 | 1013.0 |
| 20260505185421 | 62 | 68 | 6.1 | 7.0 | 0.00 | 0.00 | 0.00 | 99 | 1013.0 |
| 20260505185221 | 62 | 63 | 2.6 | 6.1 | 0.00 | 0.00 | 0.00 | 99 | 1013.0 |
| 20260505184951 | 62 | 60 | 1.7 | 7.0 | 0.00 | 0.00 | 0.00 | 99 | 1013.1 |
| 20260505184721 | 62 | 75 | 5.2 | 10.4 | 0.00 | 0.00 | 0.00 | 99 | 1013.0 |
| 20260505184521 | 62 | 58 | 4.3 | 8.7 | 0.00 | 0.00 | 0.00 | 99 | 1013.1 |
| 20260505184251 | 62 | 86 | 6.1 | 10.4 | 0.00 | 0.00 | 0.00 | 99 | 1013.1 |
| 20260505184051 | 63 | 65 | 5.2 | 10.4 | 0.00 | 0.00 | 0.00 | 99 | 1013.1 |
| 20260505183851 | 63 | 64 | 4.3 | 6.1 | 0.00 | 0.00 | 0.00 | 99 | 1013.1 |
| 20260505183621 | 64 | 69 | 4.3 | 10.4 | 0.00 | 0.00 | 0.00 | 99 | 1013.1 |
| 20260505183421 | 63 | 51 | 0.9 | 7.0 | 0.00 | 0.00 | 0.00 | 99 | 1013.1 |
| 20260505183221 | 63 | 56 | 2.6 | 6.1 | 0.00 | 0.00 | 0.00 | 99 | 1013.1 |
| 20260505183021 | 64 | 141 | 1.7 | 4.3 | 0.00 | 0.00 | 0.00 | 99 | 1013.1 |
| 20260505182821 | 64 | 71 | 2.6 | 5.2 | 0.00 | 0.00 | 0.00 | 99 | 1013.1 |
| 20260505182551 | 63 | 172 | 0.9 | 4.3 | 0.00 | 0.00 | 0.00 | 99 | 1013.0 |
| 20260505182321 | 63 | 40 | 1.7 | 2.6 | 0.00 | 0.00 | 0.00 | 99 | 1013.1 |
| 20260505182121 | 63 | 47 | 1.7 | 7.0 | 0.00 | 0.00 | 0.00 | 99 | 1013.1 |
| 20260505181921 | 64 | 42 | 1.7 | 5.2 | 0.00 | 0.00 | 0.00 | 99 | 1013.0 |
| 20260505181651 | 64 | 129 | 4.3 | 6.1 | 0.00 | 0.00 | 0.00 | 99 | 1013.1 |
| 20260505181451 | 65 | 82 | 1.7 | 2.6 | 0.00 | 0.00 | 0.00 | 99 | 1013.1 |
| 20260505181221 | 64 | 108 | 0.0 | 0.9 | 0.00 | 0.00 | 0.00 | 99 | 1013.0 |
| 20260505181021 | 63 | 151 | 0.0 | 0.0 | 0.00 | 0.00 | 0.00 | 99 | 1013.0 |
| 20260505180751 | 63 | 152 | 0.9 | 0.9 | 0.00 | 0.00 | 0.00 | 99 | 1013.0 |
| 20260505180551 | 62 | 56 | 1.7 | 4.3 | 0.00 | 0.00 | 0.00 | 99 | 1013.0 |
| 20260505180321 | 62 | 31 | 2.6 | 5.2 | 0.00 | 0.00 | 0.00 | 99 | 1012.9 |
| 20260505180121 | 62 | 79 | 0.9 | 1.7 | 0.00 | 0.00 | 0.00 | 99 | 1012.9 |
| 20260505175851 | 61 | 41 | 2.6 | 2.6 | 0.00 | 0.00 | 0.00 | 99 | 1013.0 |
| 20260505175651 | 61 | 50 | 4.3 | 7.0 | 0.00 | 0.00 | 0.00 | 99 | 1013.0 |
| 20260505175421 | 62 | 52 | 4.3 | 5.2 | 0.00 | 0.00 | 0.00 | 99 | 1013.0 |
| 20260505175151 | 62 | 139 | 1.7 | 8.7 | 0.00 | 0.00 | 0.00 | 99 | 1013.0 |
| 20260505174921 | 61 | 50 | 0.9 | 5.2 | 0.00 | 0.00 | 0.00 | 99 | 1013.0 |
| 20260505174651 | 62 | 60 | 5.2 | 11.3 | 0.00 | 0.00 | 0.00 | 99 | 1013.0 |
| 20260505174421 | 62 | 64 | 0.9 | 4.3 | 0.00 | 0.00 | 0.00 | 99 | 1013.0 |
| 20260505174221 | 62 | 89 | 0.0 | 2.6 | 0.00 | 0.00 | 0.00 | 99 | 1013.0 |
| 20260505174021 | 63 | 94 | 5.2 | 10.4 | 0.00 | 0.00 | 0.00 | 99 | 1013.0 |
| 20260505173751 | 63 | 76 | 0.0 | 5.2 | 0.00 | 0.00 | 0.00 | 99 | 1013.0 |
| 20260505173521 | 63 | 87 | 0.0 | 0.0 | 0.00 | 0.00 | 0.00 | 99 | 1013.0 |
| 20260505173251 | 62 | 103 | 0.9 | 1.7 | 0.00 | 0.00 | 0.00 | 99 | 1012.9 |
| 20260505173021 | 62 | 42 | 0.0 | 0.0 | 0.00 | 0.00 | 0.00 | 99 | 1013.0 |
| 20260505172821 | 61 | 68 | 0.0 | 4.3 | 0.00 | 0.00 | 0.00 | 99 | 1013.0 |
| 20260505172621 | 61 | 114 | 1.7 | 2.6 | 0.00 | 0.00 | 0.00 | 99 | 1013.0 |
| 20260505172421 | 62 | 139 | 2.6 | 7.8 | 0.00 | 0.00 | 0.00 | 99 | 1013.0 |
| 20260505172151 | 62 | 113 | 2.6 | 4.3 | 0.00 | 0.00 | 0.00 | 99 | 1013.0 |
| 20260505171951 | 62 | 48 | 0.9 | 0.9 | 0.00 | 0.00 | 0.00 | 99 | 1013.0 |
| 20260505171721 | 62 | 150 | 0.0 | 0.9 | 0.00 | 0.00 | 0.00 | 99 | 1013.0 |
| 20260505171521 | 62 | 139 | 1.7 | 7.0 | 0.00 | 0.00 | 0.00 | 99 | 1013.0 |
| 20260505171251 | 61 | 74 | 0.9 | 5.2 | 0.00 | 0.00 | 0.00 | 99 | 1013.0 |
| 20260505171051 | 61 | 81 | 0.9 | 2.6 | 0.00 | 0.00 | 0.00 | 99 | 1013.0 |
| 20260505170821 | 61 | 131 | 2.6 | 6.1 | 0.00 | 0.00 | 0.00 | 99 | 1013.0 |
| 20260505170551 | 61 | 101 | 2.6 | 2.6 | 0.00 | 0.00 | 0.00 | 99 | 1013.0 |
| 20260505170321 | 60 | 90 | 0.0 | 0.0 | 0.00 | 0.00 | 0.00 | 99 | 1013.0 |
| 20260505170121 | 60 | 50 | 4.3 | 5.2 | 0.00 | 0.00 | 0.00 | 99 | 1013.0 |
| 20260505165921 | 61 | 65 | 6.1 | 10.4 | 0.00 | 0.00 | 0.00 | 99 | 1013.0 |
| 20260505165721 | 61 | 74 | 0.0 | 0.0 | 0.00 | 0.00 | 0.00 | 99 | 1013.0 |
| 20260505165521 | 61 | 88 | 4.3 | 10.4 | 0.00 | 0.00 | 0.00 | 99 | 1013.0 |
| 20260505165321 | 60 | 42 | 2.6 | 6.1 | 0.00 | 0.00 | 0.00 | 99 | 1013.0 |
| 20260505165051 | 60 | 130 | 0.9 | 4.3 | 0.00 | 0.00 | 0.00 | 99 | 1013.0 |
| 20260505164851 | 61 | 85 | 2.6 | 6.1 | 0.00 | 0.00 | 0.00 | 99 | 1012.9 |
| 20260505164621 | 61 | 70 | 2.6 | 5.2 | 0.00 | 0.00 | 0.00 | 99 | 1012.9 |
| 20260505164421 | 61 | 57 | 0.0 | 1.7 | 0.00 | 0.00 | 0.00 | 99 | 1012.9 |
| 20260505164151 | 61 | 78 | 4.3 | 6.1 | 0.00 | 0.00 | 0.00 | 99 | 1012.9 |
| 20260505163951 | 61 | 42 | 0.0 | 0.0 | 0.00 | 0.00 | 0.00 | 99 | 1012.9 |
| 20260505163721 | 61 | 54 | 1.7 | 4.3 | 0.00 | 0.00 | 0.00 | 99 | 1012.9 |
| 20260505163521 | 61 | 66 | 0.9 | 2.6 | 0.00 | 0.00 | 0.00 | 99 | 1012.8 |
| 20260505163251 | 61 | 76 | 0.0 | 0.9 | 0.00 | 0.00 | 0.00 | 99 | 1012.8 |
| 20260505163051 | 61 | 65 | 0.9 | 2.6 | 0.00 | 0.00 | 0.00 | 99 | 1012.7 |
| 20260505162821 | 61 | 19 | 1.7 | 2.6 | 0.00 | 0.00 | 0.00 | 99 | 1012.7 |
| 20260505162551 | 61 | 58 | 0.0 | 2.6 | 0.00 | 0.00 | 0.00 | 99 | 1012.7 |
| 20260505162351 | 61 | 57 | 1.7 | 4.3 | 0.00 | 0.00 | 0.00 | 99 | 1012.7 |
| 20260505162121 | 61 | 57 | 0.0 | 1.7 | 0.00 | 0.00 | 0.00 | 99 | 1012.7 |
| 20260505161921 | 61 | 56 | 1.7 | 2.6 | 0.00 | 0.00 | 0.00 | 99 | 1012.7 |
| 20260505161720 | 61 | 58 | 0.0 | 0.0 | 0.00 | 0.00 | 0.00 | 99 | 1012.6 |
| 20260505161450 | 61 | 139 | 0.0 | 0.0 | 0.00 | 0.00 | 0.00 | 99 | 1012.7 |
| 20260505161221 | 61 | 172 | 1.7 | 4.3 | 0.00 | 0.00 | 0.00 | 99 | 1012.7 |
| 20260505160951 | 61 | 319 | 0.9 | 2.6 | 0.00 | 0.00 | 0.00 | 99 | 1012.7 |
| 20260505160720 | 61 | 178 | 0.0 | 0.0 | 0.00 | 0.00 | 0.00 | 99 | 1012.7 |
| 20260505160450 | 61 | 69 | 0.9 | 2.6 | 0.00 | 0.00 | 0.00 | 99 | 1012.7 |
| 20260505160250 | 61 | 67 | 0.0 | 0.9 | 0.00 | 0.00 | 0.00 | 99 | 1012.8 |
| 20260505153320 | 59 | 179 | 0.0 | 0.0 | 0.00 | 0.00 | 0.00 | 99 | 1012.6 |
| 20260505153120 | 59 | 146 | 0.0 | 0.0 | 0.00 | 0.00 | 0.00 | 99 | 1012.6 |
| 20260505152850 | 59 | 133 | 0.9 | 2.6 | 0.00 | 0.00 | 0.00 | 99 | 1012.6 |
| 20260505152620 | 59 | 42 | 0.0 | 0.0 | 0.00 | 0.00 | 0.00 | 99 | 1012.6 |
| 20260505152420 | 58 | 147 | 0.0 | 0.0 | 0.00 | 0.00 | 0.00 | 99 | 1012.5 |
| 20260505152150 | 58 | 71 | 0.9 | 4.3 | 0.00 | 0.00 | 0.00 | 99 | 1012.5 |
| 20260505151950 | 58 | 139 | 0.9 | 2.6 | 0.00 | 0.00 | 0.00 | 99 | 1012.5 |
| 20260505151750 | 58 | 116 | 0.0 | 0.0 | 0.00 | 0.00 | 0.00 | 99 | 1012.4 |
| 20260505151520 | 58 | 121 | 0.0 | 0.0 | 0.00 | 0.00 | 0.00 | 99 | 1012.4 |
| 20260505151250 | 58 | 121 | 0.0 | 0.0 | 0.00 | 0.00 | 0.00 | 99 | 1012.3 |
| 20260505151050 | 58 | 115 | 0.0 | 0.0 | 0.00 | 0.00 | 0.00 | 99 | 1012.3 |
| 20260505150820 | 58 | 31 | 0.9 | 0.9 | 0.00 | 0.00 | 0.00 | 99 | 1012.4 |
| 20260505150620 | 58 | 31 | 0.9 | 2.6 | 0.00 | 0.00 | 0.00 | 99 | 1012.3 |
| 20260505150420 | 59 | 31 | 0.9 | 2.6 | 0.00 | 0.00 | 0.00 | 99 | 1012.3 |
| 20260505150220 | 59 | 31 | 0.0 | 1.7 | 0.00 | 0.00 | 0.00 | 99 | 1012.3 |
| 20260505140550 | 52 | 54 | 0.0 | 0.0 | 0.00 | 0.00 | 0.00 | 99 | 1011.6 |
| 20260505140350 | 52 | 54 | 0.0 | 0.0 | 0.00 | 0.00 | 0.00 | 99 | 1011.6 |
| 20260505140150 | 52 | 54 | 0.0 | 0.0 | 0.00 | 0.00 | 0.00 | 99 | 1011.6 |
| 20260505130220 | 51 | 54 | 0.0 | 0.0 | 0.00 | 0.00 | 0.00 | 99 | 1010.8 |
| 20260505124920 | 51 | 54 | 0.0 | 0.0 | 0.00 | 0.00 | 0.00 | 99 | 1010.6 |
| 20260505124650 | 51 | 54 | 0.0 | 0.0 | 0.00 | 0.00 | 0.00 | 99 | 1010.6 |
| 20260505124450 | 51 | 54 | 0.0 | 0.0 | 0.00 | 0.00 | 0.00 | 99 | 1010.5 |
| 20260505124220 | 51 | 54 | 0.0 | 0.0 | 0.00 | 0.00 | 0.00 | 99 | 1010.4 |
| 20260505123950 | 51 | 54 | 0.0 | 0.0 | 0.00 | 0.00 | 0.00 | 99 | 1010.4 |
| 20260505123750 | 51 | 54 | 0.0 | 0.0 | 0.00 | 0.00 | 0.00 | 99 | 1010.4 |
| 20260505123550 | 51 | 54 | 0.0 | 0.0 | 0.00 | 0.00 | 0.00 | 99 | 1010.4 |
| 20260505123320 | 51 | 54 | 0.0 | 0.0 | 0.00 | 0.00 | 0.00 | 99 | 1010.3 |
| 20260505123120 | 51 | 54 | 0.0 | 0.0 | 0.00 | 0.00 | 0.00 | 99 | 1010.3 |
| 20260505122920 | 51 | 54 | 0.0 | 0.0 | 0.00 | 0.00 | 0.00 | 99 | 1010.3 |
| 20260505122720 | 51 | 54 | 0.0 | 0.0 | 0.00 | 0.00 | 0.00 | 99 | 1010.4 |
| 20260505122520 | 51 | 54 | 0.0 | 0.0 | 0.00 | 0.00 | 0.00 | 99 | 1010.3 |
| 20260505122250 | 51 | 54 | 0.0 | 0.0 | 0.00 | 0.00 | 0.00 | 99 | 1010.3 |
| 20260505122050 | 51 | 54 | 0.0 | 0.0 | 0.00 | 0.00 | 0.00 | 99 | 1010.2 |
| 20260505121850 | 51 | 54 | 0.0 | 0.0 | 0.00 | 0.00 | 0.00 | 99 | 1010.2 |
| 20260505121620 | 51 | 54 | 0.0 | 0.0 | 0.00 | 0.00 | 0.00 | 99 | 1010.2 |
| 20260505121420 | 51 | 54 | 0.0 | 0.0 | 0.00 | 0.00 | 0.00 | 99 | 1010.2 |
| 20260505121220 | 51 | 54 | 0.0 | 0.0 | 0.00 | 0.00 | 0.00 | 99 | 1010.1 |
| 20260505121020 | 51 | 54 | 0.0 | 0.0 | 0.00 | 0.00 | 0.00 | 99 | 1010.1 |
| 20260505120820 | 52 | 54 | 0.0 | 0.0 | 0.00 | 0.00 | 0.00 | 99 | 1010.1 |
| 20260505120620 | 52 | 54 | 0.0 | 0.0 | 0.00 | 0.00 | 0.00 | 99 | 1010.1 |
| 20260505120420 | 52 | 54 | 0.0 | 0.0 | 0.00 | 0.00 | 0.00 | 99 | 1010.1 |
| 20260505120220 | 52 | 54 | 0.0 | 0.0 | 0.00 | 0.00 | 0.00 | 99 | 1010.0 |
| 20260505120020 | 52 | 54 | 0.0 | 0.0 | 0.00 | 0.00 | 0.00 | 99 | 1010.1 |
| 20260505115820 | 52 | 54 | 0.0 | 0.0 | 0.00 | 0.00 | 0.00 | 99 | 1010.0 |
| 20260505115620 | 52 | 54 | 0.0 | 0.0 | 0.00 | 0.00 | 0.00 | 99 | 1010.0 |
| 20260505115420 | 52 | 54 | 0.0 | 0.0 | 0.00 | 0.00 | 0.00 | 99 | 1010.0 |
| 20260505115220 | 52 | 54 | 0.0 | 0.0 | 0.00 | 0.00 | 0.00 | 99 | 1010.0 |
| 20260505115020 | 52 | 54 | 0.0 | 0.0 | 0.00 | 0.00 | 0.00 | 99 | 1010.0 |
| 20260505114750 | 52 | 54 | 0.0 | 0.0 | 0.00 | 0.00 | 0.00 | 99 | 1010.0 |
| 20260505114550 | 52 | 54 | 0.0 | 0.0 | 0.00 | 0.00 | 0.00 | 99 | 1010.0 |
| 20260505114350 | 52 | 54 | 0.0 | 0.0 | 0.00 | 0.00 | 0.00 | 99 | 1010.0 |
| 20260505114120 | 52 | 54 | 0.0 | 0.0 | 0.00 | 0.00 | 0.00 | 99 | 1010.0 |
| 20260505113850 | 52 | 54 | 0.0 | 0.0 | 0.00 | 0.00 | 0.00 | 99 | 1010.0 |
| 20260505113650 | 52 | 54 | 0.0 | 0.0 | 0.00 | 0.00 | 0.00 | 99 | 1009.9 |
| 20260505113450 | 53 | 54 | 0.0 | 0.0 | 0.00 | 0.00 | 0.00 | 99 | 1009.9 |
| 20260505113220 | 53 | 54 | 0.0 | 0.0 | 0.00 | 0.00 | 0.00 | 99 | 1009.9 |
| 20260505112950 | 53 | 54 | 0.0 | 0.0 | 0.00 | 0.00 | 0.00 | 99 | 1009.9 |
| 20260505112720 | 53 | 54 | 0.0 | 0.0 | 0.00 | 0.00 | 0.00 | 99 | 1009.9 |
| 20260505112520 | 53 | 54 | 0.0 | 0.0 | 0.00 | 0.00 | 0.00 | 99 | 1009.8 |
| 20260505112250 | 53 | 54 | 0.0 | 0.0 | 0.00 | 0.00 | 0.00 | 99 | 1009.8 |
| 20260505112050 | 53 | 54 | 0.0 | 0.0 | 0.00 | 0.00 | 0.00 | 99 | 1009.8 |
| 20260505111820 | 53 | 54 | 0.0 | 0.0 | 0.00 | 0.00 | 0.00 | 99 | 1009.8 |
| 20260505111620 | 53 | 54 | 0.0 | 0.0 | 0.00 | 0.00 | 0.00 | 99 | 1009.8 |
| 20260505111350 | 53 | 54 | 0.0 | 0.0 | 0.00 | 0.00 | 0.00 | 99 | 1009.8 |
| 20260505111150 | 53 | 54 | 0.0 | 0.0 | 0.00 | 0.00 | 0.00 | 99 | 1009.7 |
| 20260505110950 | 53 | 54 | 0.0 | 0.0 | 0.00 | 0.00 | 0.00 | 99 | 1009.7 |
| 20260505110720 | 53 | 54 | 0.0 | 0.0 | 0.00 | 0.00 | 0.00 | 99 | 1009.7 |
| 20260505110450 | 53 | 54 | 0.0 | 0.0 | 0.00 | 0.00 | 0.00 | 99 | 1009.7 |
| 20260505110220 | 53 | 54 | 0.0 | 0.0 | 0.00 | 0.00 | 0.00 | 99 | 1009.7 |
| 20260505102050 | 54 | 54 | 0.0 | 0.0 | 0.00 | 0.00 | 0.00 | 99 | 1009.1 |
| 20260505101850 | 54 | 54 | 0.0 | 0.0 | 0.00 | 0.00 | 0.00 | 99 | 1009.1 |
| 20260505101620 | 54 | 54 | 0.0 | 0.0 | 0.00 | 0.00 | 0.00 | 99 | 1009.1 |
| 20260505101420 | 54 | 54 | 0.0 | 0.0 | 0.00 | 0.00 | 0.00 | 99 | 1009.1 |
| 20260505101150 | 54 | 54 | 0.0 | 0.0 | 0.00 | 0.00 | 0.00 | 99 | 1009.1 |
| 20260505100950 | 54 | 54 | 0.0 | 0.0 | 0.00 | 0.00 | 0.00 | 99 | 1009.0 |
| 20260505100750 | 54 | 54 | 0.0 | 0.0 | 0.00 | 0.00 | 0.00 | 99 | 1009.0 |
| 20260505100520 | 54 | 54 | 0.0 | 0.0 | 0.00 | 0.00 | 0.00 | 99 | 1009.0 |
| 20260505100250 | 54 | 54 | 0.0 | 0.0 | 0.00 | 0.00 | 0.00 | 99 | 1009.0 |
| 20260505100050 | 54 | 54 | 0.0 | 0.0 | 0.00 | 0.00 | 0.00 | 99 | 1009.0 |
| 20260505095849 | 54 | 54 | 0.0 | 0.0 | 0.00 | 0.00 | 0.00 | 99 | 1008.9 |
| 20260505095650 | 55 | 54 | 0.0 | 0.0 | 0.00 | 0.00 | 0.00 | 99 | 1008.9 |
| 20260505095450 | 55 | 54 | 0.0 | 0.0 | 0.00 | 0.00 | 0.00 | 99 | 1008.8 |
| 20260505095220 | 55 | 54 | 0.0 | 0.0 | 0.00 | 0.00 | 0.00 | 99 | 1008.8 |
| 20260505095019 | 55 | 54 | 0.0 | 0.0 | 0.00 | 0.00 | 0.00 | 99 | 1008.8 |
| 20260505094749 | 55 | 54 | 0.0 | 0.0 | 0.00 | 0.00 | 0.00 | 99 | 1008.8 |
| 20260505094520 | 55 | 54 | 0.0 | 0.0 | 0.00 | 0.00 | 0.00 | 99 | 1008.8 |
| 20260505094250 | 55 | 54 | 0.0 | 0.0 | 0.00 | 0.00 | 0.00 | 99 | 1008.8 |
| 20260505094050 | 55 | 54 | 0.0 | 0.0 | 0.00 | 0.00 | 0.00 | 99 | 1008.7 |
| 20260505093850 | 55 | 54 | 0.0 | 0.0 | 0.00 | 0.00 | 0.00 | 99 | 1008.7 |
| 20260505093619 | 55 | 54 | 0.0 | 0.0 | 0.00 | 0.00 | 0.00 | 99 | 1008.7 |
| 20260505093349 | 55 | 54 | 0.0 | 0.0 | 0.00 | 0.00 | 0.00 | 99 | 1008.7 |
| 20260505093150 | 55 | 54 | 0.0 | 0.0 | 0.00 | 0.00 | 0.00 | 99 | 1008.7 |
| 20260505092949 | 55 | 54 | 0.0 | 0.0 | 0.00 | 0.00 | 0.00 | 99 | 1008.6 |
| 20260505092720 | 55 | 54 | 0.0 | 0.0 | 0.00 | 0.00 | 0.00 | 99 | 1008.6 |
| 20260505092520 | 55 | 54 | 0.0 | 0.0 | 0.00 | 0.00 | 0.00 | 99 | 1008.6 |
| 20260505092249 | 55 | 54 | 0.0 | 0.0 | 0.00 | 0.00 | 0.00 | 99 | 1008.6 |
| 20260505092049 | 55 | 54 | 0.0 | 0.0 | 0.00 | 0.00 | 0.00 | 99 | 1008.6 |
| 20260505091820 | 55 | 54 | 0.0 | 0.0 | 0.00 | 0.00 | 0.00 | 99 | 1008.5 |
| 20260505091620 | 55 | 54 | 0.0 | 0.0 | 0.00 | 0.00 | 0.00 | 99 | 1008.5 |
| 20260505091350 | 55 | 54 | 0.0 | 0.0 | 0.00 | 0.00 | 0.00 | 99 | 1008.5 |
| 20260505091149 | 55 | 54 | 0.0 | 0.0 | 0.00 | 0.00 | 0.00 | 99 | 1008.5 |
| 20260505090949 | 55 | 54 | 0.0 | 0.0 | 0.00 | 0.00 | 0.00 | 99 | 1008.5 |
| 20260505090720 | 55 | 54 | 0.0 | 0.0 | 0.00 | 0.00 | 0.00 | 99 | 1008.5 |
| 20260505090520 | 55 | 54 | 0.0 | 0.0 | 0.00 | 0.00 | 0.00 | 99 | 1008.5 |
| 20260505090319 | 55 | 54 | 0.0 | 0.0 | 0.00 | 0.00 | 0.00 | 99 | 1008.4 |
| 20260505090120 | 55 | 54 | 0.0 | 0.0 | 0.00 | 0.00 | 0.00 | 99 | 1008.4 |
| 20260505085850 | 55 | 54 | 0.0 | 0.0 | 0.00 | 0.00 | 0.00 | 99 | 1008.4 |
| 20260505085649 | 56 | 54 | 0.0 | 0.0 | 0.00 | 0.00 | 0.00 | 99 | 1008.4 |
| 20260505085419 | 56 | 54 | 0.0 | 0.0 | 0.00 | 0.00 | 0.00 | 99 | 1008.3 |
| 20260505085220 | 56 | 54 | 0.0 | 0.0 | 0.00 | 0.00 | 0.00 | 99 | 1008.3 |
| 20260505084949 | 56 | 54 | 0.0 | 0.0 | 0.00 | 0.00 | 0.00 | 99 | 1008.4 |
| 20260505084749 | 56 | 54 | 0.0 | 0.0 | 0.00 | 0.00 | 0.00 | 99 | 1008.3 |
| 20260505084549 | 56 | 54 | 0.0 | 0.0 | 0.00 | 0.00 | 0.00 | 99 | 1008.3 |
| 20260505084349 | 56 | 54 | 0.0 | 0.0 | 0.00 | 0.00 | 0.00 | 99 | 1008.2 |
| 20260505084120 | 56 | 54 | 0.0 | 0.0 | 0.00 | 0.00 | 0.00 | 99 | 1008.2 |
| 20260505083919 | 56 | 54 | 0.0 | 0.0 | 0.00 | 0.00 | 0.00 | 99 | 1008.3 |
| 20260505083719 | 56 | 54 | 0.0 | 0.0 | 0.00 | 0.00 | 0.00 | 99 | 1008.2 |
| 20260505083519 | 56 | 54 | 0.0 | 0.0 | 0.00 | 0.00 | 0.00 | 99 | 1008.2 |
| 20260505083249 | 56 | 54 | 0.0 | 0.0 | 0.00 | 0.00 | 0.00 | 99 | 1008.2 |
| 20260505083019 | 57 | 54 | 0.0 | 0.0 | 0.00 | 0.00 | 0.00 | 99 | 1008.2 |
| 20260505082819 | 57 | 54 | 0.0 | 0.0 | 0.00 | 0.00 | 0.00 | 99 | 1008.1 |
| 20260505082619 | 57 | 54 | 0.0 | 0.0 | 0.00 | 0.00 | 0.00 | 99 | 1008.1 |
| 20260505082349 | 57 | 54 | 0.0 | 0.0 | 0.00 | 0.00 | 0.00 | 99 | 1008.1 |
| 20260505082119 | 57 | 54 | 0.0 | 0.0 | 0.00 | 0.00 | 0.00 | 99 | 1008.1 |
| 20260505081919 | 57 | 54 | 0.0 | 0.0 | 0.00 | 0.00 | 0.00 | 99 | 1008.1 |
| 20260505081649 | 57 | 54 | 0.0 | 0.0 | 0.00 | 0.00 | 0.00 | 99 | 1008.0 |
| 20260505081419 | 57 | 54 | 0.0 | 0.0 | 0.00 | 0.00 | 0.00 | 99 | 1008.0 |
| 20260505081219 | 57 | 54 | 0.0 | 0.0 | 0.00 | 0.00 | 0.00 | 99 | 1008.0 |
| 20260505081019 | 57 | 54 | 0.0 | 0.0 | 0.00 | 0.00 | 0.00 | 99 | 1008.0 |
| 20260505080819 | 57 | 54 | 0.0 | 0.0 | 0.00 | 0.00 | 0.00 | 99 | 1007.9 |
| 20260505080549 | 57 | 54 | 0.0 | 0.0 | 0.00 | 0.00 | 0.00 | 99 | 1007.9 |
| 20260505080319 | 57 | 54 | 0.0 | 0.0 | 0.00 | 0.00 | 0.00 | 99 | 1007.9 |
| 20260505080119 | 57 | 54 | 0.0 | 0.0 | 0.00 | 0.00 | 0.00 | 99 | 1007.9 |
| 20260505075850 | 57 | 54 | 0.0 | 0.0 | 0.00 | 0.00 | 0.00 | 99 | 1007.9 |
| 20260505075649 | 57 | 54 | 0.0 | 0.0 | 0.00 | 0.00 | 0.00 | 99 | 1007.8 |
| 20260505075449 | 58 | 54 | 0.0 | 0.0 | 0.00 | 0.00 | 0.00 | 99 | 1007.8 |
| 20260505075249 | 58 | 54 | 0.0 | 0.0 | 0.00 | 0.00 | 0.00 | 99 | 1007.8 |
| 20260505075049 | 58 | 54 | 0.0 | 0.0 | 0.00 | 0.00 | 0.00 | 99 | 1007.8 |
| 20260505074849 | 58 | 54 | 0.0 | 0.0 | 0.00 | 0.00 | 0.00 | 99 | 1007.8 |
| 20260505074619 | 58 | 54 | 0.0 | 0.0 | 0.00 | 0.00 | 0.00 | 99 | 1007.8 |
| 20260505074419 | 58 | 54 | 0.0 | 0.0 | 0.00 | 0.00 | 0.00 | 99 | 1007.8 |
| 20260505074219 | 58 | 54 | 0.0 | 0.0 | 0.00 | 0.00 | 0.00 | 99 | 1007.7 |
| 20260505074019 | 58 | 54 | 0.0 | 0.0 | 0.00 | 0.00 | 0.00 | 99 | 1007.7 |
| 20260505073749 | 59 | 54 | 0.0 | 0.0 | 0.00 | 0.00 | 0.00 | 99 | 1007.7 |
| 20260505073549 | 59 | 54 | 0.0 | 0.0 | 0.00 | 0.00 | 0.00 | 99 | 1007.7 |
| 20260505073349 | 59 | 54 | 0.0 | 0.0 | 0.00 | 0.00 | 0.00 | 99 | 1007.7 |
| 20260505073119 | 59 | 54 | 0.0 | 0.0 | 0.00 | 0.00 | 0.00 | 99 | 1007.6 |
| 20260505072849 | 59 | 54 | 0.0 | 0.0 | 0.00 | 0.00 | 0.00 | 99 | 1007.6 |
| 20260505072619 | 59 | 54 | 0.0 | 0.0 | 0.00 | 0.00 | 0.00 | 99 | 1007.6 |
| 20260505072419 | 59 | 54 | 0.0 | 0.0 | 0.00 | 0.00 | 0.00 | 99 | 1007.5 |
| 20260505072149 | 59 | 54 | 0.0 | 0.0 | 0.00 | 0.00 | 0.00 | 99 | 1007.6 |
| 20260505071949 | 59 | 54 | 0.0 | 0.0 | 0.00 | 0.00 | 0.00 | 99 | 1007.5 |
| 20260505071749 | 59 | 54 | 0.0 | 0.0 | 0.00 | 0.00 | 0.00 | 99 | 1007.5 |
| 20260505071549 | 59 | 54 | 0.0 | 0.0 | 0.00 | 0.00 | 0.00 | 99 | 1007.5 |
| 20260505071349 | 59 | 54 | 0.0 | 0.0 | 0.00 | 0.00 | 0.00 | 99 | 1007.5 |
| 20260505071119 | 59 | 54 | 0.0 | 0.0 | 0.00 | 0.00 | 0.00 | 99 | 1007.4 |
| 20260505070849 | 59 | 54 | 0.0 | 0.0 | 0.00 | 0.00 | 0.00 | 99 | 1007.4 |
| 20260505070619 | 59 | 54 | 0.0 | 0.0 | 0.00 | 0.00 | 0.00 | 99 | 1007.4 |
| 20260505070419 | 59 | 54 | 0.0 | 0.0 | 0.00 | 0.00 | 0.00 | 99 | 1007.5 |
| 20260505070149 | 59 | 54 | 0.0 | 0.0 | 0.00 | 0.00 | 0.00 | 99 | 1007.4 |
| 20260505065949 | 59 | 54 | 0.0 | 0.0 | 0.00 | 0.00 | 0.00 | 99 | 1007.5 |
| 20260505065749 | 59 | 54 | 0.0 | 0.0 | 0.00 | 0.00 | 0.00 | 99 | 1007.5 |
| 20260505065549 | 60 | 54 | 0.0 | 0.0 | 0.00 | 0.00 | 0.00 | 99 | 1007.5 |
| 20260505065319 | 60 | 54 | 0.0 | 0.0 | 0.00 | 0.00 | 0.00 | 99 | 1007.5 |
| 20260505065119 | 60 | 54 | 0.0 | 0.0 | 0.00 | 0.00 | 0.00 | 99 | 1007.4 |
| 20260505064919 | 60 | 54 | 0.0 | 0.0 | 0.00 | 0.00 | 0.00 | 99 | 1007.4 |
| 20260505064649 | 60 | 54 | 0.0 | 0.0 | 0.00 | 0.00 | 0.00 | 99 | 1007.4 |
| 20260505064419 | 60 | 54 | 0.0 | 0.0 | 0.00 | 0.00 | 0.00 | 99 | 1007.3 |
| 20260505064219 | 60 | 54 | 0.0 | 0.0 | 0.00 | 0.00 | 0.00 | 99 | 1007.3 |
| 20260505063949 | 60 | 54 | 0.0 | 0.0 | 0.00 | 0.00 | 0.00 | 99 | 1007.3 |
| 20260505063749 | 60 | 54 | 0.0 | 0.0 | 0.00 | 0.00 | 0.00 | 99 | 1007.3 |
| 20260505063519 | 60 | 54 | 0.0 | 0.0 | 0.00 | 0.00 | 0.00 | 99 | 1007.2 |
| 20260505063249 | 60 | 54 | 0.0 | 0.0 | 0.00 | 0.00 | 0.00 | 99 | 1007.2 |
| 20260505063019 | 60 | 54 | 0.0 | 0.0 | 0.00 | 0.00 | 0.00 | 99 | 1007.2 |
| 20260505062819 | 60 | 54 | 0.0 | 0.0 | 0.00 | 0.00 | 0.00 | 99 | 1007.1 |
| 20260505062549 | 61 | 54 | 0.0 | 0.0 | 0.00 | 0.00 | 0.00 | 99 | 1007.1 |
| 20260505062349 | 61 | 54 | 0.0 | 0.0 | 0.00 | 0.00 | 0.00 | 99 | 1007.0 |
| 20260505062119 | 61 | 54 | 0.0 | 0.0 | 0.00 | 0.00 | 0.00 | 99 | 1007.0 |
| 20260505061849 | 61 | 54 | 0.0 | 0.0 | 0.00 | 0.00 | 0.00 | 99 | 1007.0 |
| 20260505061619 | 61 | 54 | 0.0 | 0.0 | 0.00 | 0.00 | 0.00 | 99 | 1007.0 |
| 20260505061349 | 61 | 54 | 0.0 | 0.0 | 0.00 | 0.00 | 0.00 | 99 | 1007.0 |
| 20260505061149 | 61 | 54 | 0.0 | 0.0 | 0.00 | 0.00 | 0.00 | 99 | 1007.0 |
| 20260505060949 | 61 | 54 | 0.0 | 0.0 | 0.00 | 0.00 | 0.00 | 99 | 1006.9 |
| 20260505060749 | 61 | 54 | 0.0 | 0.0 | 0.00 | 0.00 | 0.00 | 99 | 1006.9 |
| 20260505060549 | 61 | 54 | 0.0 | 0.0 | 0.00 | 0.00 | 0.00 | 99 | 1006.9 |
| 20260505060349 | 61 | 54 | 0.0 | 0.0 | 0.00 | 0.00 | 0.00 | 99 | 1006.9 |
| 20260505060149 | 61 | 54 | 0.0 | 0.0 | 0.00 | 0.00 | 0.00 | 99 | 1006.8 |
| 20260505055919 | 61 | 54 | 0.0 | 0.0 | 0.00 | 0.00 | 0.00 | 99 | 1006.9 |
| 20260505055719 | 61 | 54 | 0.0 | 0.0 | 0.00 | 0.00 | 0.00 | 99 | 1006.9 |
| 20260505055449 | 61 | 54 | 0.0 | 0.0 | 0.00 | 0.00 | 0.00 | 99 | 1006.8 |
| 20260505055219 | 61 | 54 | 0.0 | 0.0 | 0.00 | 0.00 | 0.00 | 99 | 1006.8 |
| 20260505055019 | 61 | 54 | 0.0 | 0.0 | 0.00 | 0.00 | 0.00 | 99 | 1006.8 |
| 20260505054819 | 62 | 54 | 0.0 | 0.0 | 0.00 | 0.00 | 0.00 | 99 | 1006.7 |